| time (UTC) | temp F | wind direction | speed knots | gust knots | rain 1hr in | rain 24hr in | rain mn in | humidity % | barometer mb |
| 20260505140507 | 64 | 232 | 1.7 | 5.2 | 0.00 | 0.00 | 0.00 | 70 | 1010.6 |
| 20260505125004 | 59 | 316 | 0.0 | 1.7 | 0.00 | 0.00 | 0.00 | 83 | 1011.1 |
| 20260505124508 | 58 | 301 | 0.9 | 1.7 | 0.00 | 0.00 | 0.00 | 84 | 1011.4 |
| 20260505124009 | 57 | 92 | 0.0 | 1.7 | 0.00 | 0.00 | 0.00 | 85 | 1011.5 |
| 20260505123506 | 57 | 110 | 0.9 | 1.7 | 0.00 | 0.00 | 0.00 | 85 | 1011.4 |
| 20260505123008 | 57 | 165 | 0.0 | 4.3 | 0.00 | 0.00 | 0.00 | 87 | 1011.3 |
| 20260505122506 | 56 | 272 | 0.0 | 4.3 | 0.00 | 0.00 | 0.00 | 89 | 1011.4 |
| 20260505122011 | 55 | 20 | 0.0 | 4.3 | 0.00 | 0.00 | 0.00 | 88 | 1011.4 |
| 20260505121504 | 55 | 207 | 1.7 | 4.3 | 0.00 | 0.00 | 0.00 | 89 | 1011.4 |
| 20260505121003 | 55 | 190 | 0.0 | 1.7 | 0.00 | 0.00 | 0.00 | 90 | 1011.5 |
| 20260505120509 | 55 | 43 | 0.9 | 4.3 | 0.00 | 0.00 | 0.00 | 91 | 1011.6 |
| 20260505120006 | 54 | 92 | 0.0 | 4.3 | 0.00 | 0.00 | 0.00 | 92 | 1011.6 |
| 20260505115505 | 54 | 223 | 0.9 | 5.2 | 0.00 | 0.00 | 0.00 | 93 | 1011.5 |
| 20260505115003 | 53 | 165 | 0.9 | 5.2 | 0.00 | 0.00 | 0.00 | 95 | 1011.6 |
| 20260505114508 | 53 | 122 | 0.9 | 3.5 | 0.00 | 0.00 | 0.00 | 96 | 1011.4 |
| 20260505114003 | 52 | 126 | 0.9 | 2.6 | 0.00 | 0.00 | 0.00 | 96 | 1011.3 |
| 20260505113508 | 51 | 138 | 0.0 | 3.5 | 0.00 | 0.00 | 0.00 | 96 | 1011.3 |
| 20260505113012 | 50 | 101 | 0.9 | 3.5 | 0.00 | 0.00 | 0.00 | 96 | 1011.1 |
| 20260505112506 | 50 | 360 | 0.9 | 3.5 | 0.00 | 0.00 | 0.00 | 96 | 1011.2 |
| 20260505112003 | 49 | 360 | 0.0 | 1.7 | 0.00 | 0.00 | 0.00 | 96 | 1011.2 |
| 20260505111517 | 49 | 128 | 0.0 | 1.7 | 0.00 | 0.00 | 0.00 | 96 | 1011.3 |
| 20260505111007 | 49 | 171 | 0.0 | 1.7 | 0.00 | 0.00 | 0.00 | 96 | 1011.2 |
| 20260505110511 | 48 | 139 | 0.0 | 1.7 | 0.00 | 0.00 | 0.00 | 96 | 1011.1 |
| 20260505102001 | 47 | 159 | 0.9 | 1.7 | 0.00 | 0.00 | 0.00 | 96 | 1010.6 |
| 20260505101503 | 47 | 169 | 0.0 | 1.7 | 0.00 | 0.00 | 0.00 | 96 | 1010.7 |
| 20260505101003 | 46 | 360 | 0.9 | 2.6 | 0.00 | 0.00 | 0.00 | 96 | 1010.6 |
| 20260505100502 | 46 | 109 | 0.0 | 2.6 | 0.00 | 0.00 | 0.00 | 96 | 1010.6 |
| 20260505100003 | 46 | 125 | 0.9 | 2.6 | 0.00 | 0.00 | 0.00 | 96 | 1010.5 |
| 20260505095503 | 46 | 130 | 0.9 | 1.7 | 0.00 | 0.00 | 0.00 | 96 | 1010.4 |
| 20260505095003 | 46 | 136 | 0.9 | 1.7 | 0.00 | 0.00 | 0.00 | 95 | 1010.4 |
| 20260505094502 | 46 | 85 | 0.9 | 2.6 | 0.00 | 0.00 | 0.00 | 96 | 1010.3 |
| 20260505094004 | 46 | 147 | 0.9 | 2.6 | 0.00 | 0.00 | 0.00 | 96 | 1010.3 |
| 20260505093506 | 46 | 119 | 0.9 | 1.7 | 0.00 | 0.00 | 0.00 | 96 | 1010.3 |
| 20260505093008 | 46 | 122 | 0.9 | 1.7 | 0.00 | 0.00 | 0.00 | 95 | 1010.3 |
| 20260505092504 | 46 | 118 | 0.9 | 1.7 | 0.00 | 0.00 | 0.00 | 95 | 1010.4 |
| 20260505092004 | 46 | 130 | 0.9 | 1.7 | 0.00 | 0.00 | 0.00 | 95 | 1010.3 |
| 20260505091503 | 46 | 100 | 0.0 | 1.7 | 0.00 | 0.00 | 0.00 | 95 | 1010.4 |
| 20260505091003 | 46 | 99 | 0.9 | 1.7 | 0.00 | 0.00 | 0.00 | 95 | 1010.4 |
| 20260505090503 | 46 | 137 | 0.9 | 1.7 | 0.00 | 0.00 | 0.00 | 95 | 1010.3 |
| 20260505090008 | 46 | 133 | 0.9 | 2.6 | 0.00 | 0.00 | 0.00 | 95 | 1010.3 |
| 20260505085503 | 46 | 119 | 1.7 | 2.6 | 0.00 | 0.00 | 0.00 | 95 | 1010.3 |
| 20260505085002 | 46 | 128 | 1.7 | 1.7 | 0.00 | 0.00 | 0.00 | 95 | 1010.4 |
| 20260505084505 | 46 | 128 | 1.7 | 1.7 | 0.00 | 0.00 | 0.00 | 95 | 1010.5 |
| 20260505084001 | 46 | 133 | 1.7 | 1.7 | 0.00 | 0.00 | 0.00 | 95 | 1010.6 |
| 20260505083502 | 46 | 139 | 0.9 | 2.6 | 0.00 | 0.00 | 0.00 | 95 | 1010.6 |
| 20260505083006 | 46 | 123 | 1.7 | 2.6 | 0.00 | 0.00 | 0.00 | 95 | 1010.6 |
| 20260505082506 | 46 | 140 | 1.7 | 2.6 | 0.00 | 0.00 | 0.00 | 94 | 1010.6 |
| 20260505082006 | 46 | 128 | 1.7 | 2.6 | 0.00 | 0.00 | 0.00 | 95 | 1010.6 |
| 20260505081504 | 46 | 134 | 1.7 | 2.6 | 0.00 | 0.00 | 0.00 | 94 | 1010.5 |
| 20260505081003 | 46 | 141 | 0.9 | 2.6 | 0.00 | 0.00 | 0.00 | 94 | 1010.6 |
| 20260505080503 | 46 | 124 | 1.7 | 2.6 | 0.00 | 0.00 | 0.00 | 94 | 1010.7 |
| 20260505080004 | 46 | 132 | 0.9 | 2.6 | 0.00 | 0.00 | 0.00 | 94 | 1010.7 |
| 20260505075503 | 46 | 113 | 1.7 | 2.6 | 0.00 | 0.00 | 0.00 | 94 | 1010.6 |
| 20260505075003 | 46 | 119 | 0.9 | 2.6 | 0.00 | 0.00 | 0.00 | 94 | 1010.6 |
| 20260505074505 | 46 | 136 | 1.7 | 2.6 | 0.00 | 0.00 | 0.00 | 94 | 1010.6 |
| 20260505074003 | 46 | 129 | 1.7 | 2.6 | 0.00 | 0.00 | 0.00 | 94 | 1010.7 |
| 20260505073505 | 46 | 105 | 0.9 | 2.6 | 0.00 | 0.00 | 0.00 | 94 | 1010.7 |
| 20260505073008 | 46 | 108 | 1.7 | 2.6 | 0.00 | 0.00 | 0.00 | 94 | 1010.7 |
| 20260505072502 | 46 | 130 | 1.7 | 2.6 | 0.00 | 0.00 | 0.00 | 94 | 1010.7 |
| 20260505072002 | 46 | 126 | 1.7 | 2.6 | 0.00 | 0.00 | 0.00 | 94 | 1010.7 |
| 20260505071505 | 46 | 117 | 1.7 | 2.6 | 0.00 | 0.00 | 0.00 | 94 | 1010.7 |
| 20260505071007 | 46 | 125 | 1.7 | 2.6 | 0.00 | 0.00 | 0.00 | 93 | 1010.7 |
| 20260505070502 | 46 | 126 | 1.7 | 2.6 | 0.00 | 0.00 | 0.00 | 93 | 1010.8 |
| 20260505070008 | 46 | 128 | 1.7 | 2.6 | 0.00 | 0.00 | 0.00 | 93 | 1010.8 |
| 20260505065504 | 46 | 122 | 1.7 | 2.6 | 0.00 | 0.00 | 0.00 | 93 | 1010.8 |
| 20260505065006 | 46 | 134 | 1.7 | 2.6 | 0.00 | 0.00 | 0.00 | 93 | 1010.8 |
| 20260505064504 | 46 | 132 | 1.7 | 2.6 | 0.00 | 0.00 | 0.00 | 93 | 1010.8 |
| 20260505064006 | 46 | 129 | 1.7 | 2.6 | 0.00 | 0.00 | 0.00 | 93 | 1010.9 |
| 20260505063506 | 46 | 105 | 1.7 | 2.6 | 0.00 | 0.00 | 0.00 | 92 | 1010.9 |
| 20260505063006 | 46 | 108 | 1.7 | 2.6 | 0.00 | 0.00 | 0.00 | 92 | 1011.0 |
| 20260505062505 | 46 | 115 | 0.9 | 2.6 | 0.00 | 0.00 | 0.00 | 92 | 1011.1 |
| 20260505062006 | 46 | 132 | 1.7 | 2.6 | 0.00 | 0.00 | 0.00 | 92 | 1011.0 |
| 20260505061515 | 46 | 136 | 1.7 | 2.6 | 0.00 | 0.00 | 0.00 | 92 | 1011.1 |
| 20260505061003 | 46 | 121 | 1.7 | 2.6 | 0.00 | 0.00 | 0.00 | 92 | 1011.1 |
| 20260505060503 | 46 | 96 | 1.7 | 2.6 | 0.00 | 0.00 | 0.00 | 92 | 1011.1 |
| 20260505060017 | 46 | 122 | 1.7 | 2.6 | 0.00 | 0.00 | 0.00 | 91 | 1011.2 |
| 20260505055511 | 46 | 127 | 1.7 | 2.6 | 0.00 | 0.00 | 0.00 | 91 | 1011.2 |
| 20260505055003 | 46 | 136 | 0.9 | 1.7 | 0.00 | 0.00 | 0.00 | 91 | 1011.3 |
| 20260505054510 | 46 | 112 | 0.9 | 1.7 | 0.00 | 0.00 | 0.00 | 91 | 1011.3 |
| 20260505054007 | 46 | 128 | 0.9 | 1.7 | 0.00 | 0.00 | 0.00 | 90 | 1011.3 |
| 20260505053501 | 46 | 103 | 0.9 | 1.7 | 0.00 | 0.00 | 0.00 | 90 | 1011.3 |
| 20260505053012 | 46 | 124 | 0.9 | 2.6 | 0.00 | 0.00 | 0.00 | 90 | 1011.2 |
| 20260505052506 | 46 | 111 | 0.9 | 2.6 | 0.00 | 0.00 | 0.00 | 90 | 1011.3 |
| 20260505052003 | 46 | 122 | 0.9 | 1.7 | 0.00 | 0.00 | 0.00 | 89 | 1011.3 |
| 20260505051505 | 46 | 124 | 0.9 | 1.7 | 0.00 | 0.00 | 0.00 | 89 | 1011.4 |
| 20260505051003 | 47 | 111 | 0.9 | 0.9 | 0.00 | 0.00 | 0.00 | 89 | 1011.4 |
| 20260505050506 | 47 | 115 | 0.9 | 1.7 | 0.00 | 0.00 | 0.00 | 88 | 1011.4 |
| 20260505041506 | 49 | 127 | 0.9 | 1.7 | 0.00 | 0.00 | 0.00 | 83 | 1011.8 |
| 20260505041003 | 50 | 135 | 0.9 | 1.7 | 0.00 | 0.00 | 0.00 | 82 | 1011.7 |
| 20260505040503 | 50 | 134 | 0.9 | 1.7 | 0.00 | 0.00 | 0.00 | 81 | 1011.7 |
| 20260505040009 | 51 | 97 | 0.9 | 2.6 | 0.00 | 0.00 | 0.00 | 80 | 1011.6 |
| 20260505035503 | 51 | 96 | 0.9 | 2.6 | 0.00 | 0.00 | 0.00 | 80 | 1011.6 |
| 20260505035003 | 51 | 118 | 0.9 | 3.5 | 0.00 | 0.00 | 0.00 | 79 | 1011.6 |
| 20260505034509 | 51 | 130 | 0.9 | 5.2 | 0.00 | 0.00 | 0.00 | 80 | 1011.6 |
| 20260505034008 | 52 | 155 | 1.7 | 4.3 | 0.00 | 0.00 | 0.00 | 79 | 1011.6 |
| 20260505033507 | 52 | 98 | 0.9 | 3.5 | 0.00 | 0.00 | 0.00 | 78 | 1011.6 |
| 20260505033016 | 52 | 86 | 0.9 | 3.5 | 0.00 | 0.00 | 0.00 | 78 | 1011.6 |
| 20260505032504 | 52 | 107 | 0.0 | 7.0 | 0.00 | 0.00 | 0.00 | 78 | 1011.6 |
| 20260505032007 | 52 | 153 | 1.7 | 6.1 | 0.00 | 0.00 | 0.00 | 78 | 1011.6 |
| 20260505031522 | 52 | 225 | 0.9 | 4.3 | 0.00 | 0.00 | 0.00 | 78 | 1011.7 |
| 20260505031007 | 52 | 265 | 1.7 | 4.3 | 0.00 | 0.00 | 0.00 | 78 | 1011.7 |
| 20260505030507 | 52 | 248 | 0.9 | 7.0 | 0.00 | 0.00 | 0.00 | 77 | 1011.7 |
| 20260505030006 | 52 | 175 | 0.0 | 7.0 | 0.00 | 0.00 | 0.00 | 77 | 1011.6 |
| 20260505025503 | 53 | 99 | 0.9 | 4.3 | 0.00 | 0.00 | 0.00 | 77 | 1011.7 |
| 20260505025004 | 53 | 189 | 0.9 | 4.3 | 0.00 | 0.00 | 0.00 | 77 | 1011.7 |
| 20260505024510 | 53 | 283 | 1.7 | 5.2 | 0.00 | 0.00 | 0.00 | 76 | 1011.6 |
| 20260505024008 | 53 | 119 | 1.7 | 5.2 | 0.00 | 0.00 | 0.00 | 76 | 1011.7 |
| 20260505023503 | 53 | 222 | 0.9 | 3.5 | 0.00 | 0.00 | 0.00 | 76 | 1011.7 |
| 20260505023010 | 53 | 187 | 0.9 | 3.5 | 0.00 | 0.00 | 0.00 | 76 | 1011.7 |
| 20260505022508 | 53 | 198 | 0.0 | 7.0 | 0.00 | 0.00 | 0.00 | 75 | 1011.6 |
| 20260505022010 | 53 | 287 | 0.9 | 7.0 | 0.00 | 0.00 | 0.00 | 75 | 1011.7 |
| 20260505021509 | 53 | 169 | 0.0 | 4.3 | 0.00 | 0.00 | 0.00 | 75 | 1011.6 |
| 20260505021007 | 53 | 217 | 0.9 | 2.6 | 0.00 | 0.00 | 0.00 | 74 | 1011.6 |
| 20260505020506 | 53 | 159 | 0.0 | 2.6 | 0.00 | 0.00 | 0.00 | 74 | 1011.6 |
| 20260505020029 | 53 | 208 | 0.9 | 2.6 | 0.00 | 0.00 | 0.00 | 74 | 1011.7 |
| 20260505015512 | 53 | 219 | 0.0 | 2.6 | 0.00 | 0.00 | 0.00 | 73 | 1011.7 |
| 20260505015007 | 53 | 237 | 0.9 | 2.6 | 0.00 | 0.00 | 0.00 | 73 | 1011.7 |
| 20260505014510 | 53 | 51 | 0.0 | 2.6 | 0.00 | 0.00 | 0.00 | 73 | 1011.7 |
| 20260505014003 | 54 | 248 | 0.9 | 3.5 | 0.00 | 0.00 | 0.00 | 72 | 1011.7 |
| 20260505013503 | 54 | 191 | 1.7 | 3.5 | 0.00 | 0.00 | 0.00 | 71 | 1011.7 |
| 20260505013016 | 54 | 259 | 0.9 | 3.5 | 0.00 | 0.00 | 0.00 | 71 | 1011.7 |
| 20260505012512 | 54 | 213 | 1.7 | 7.0 | 0.00 | 0.00 | 0.00 | 70 | 1011.6 |
| 20260505012004 | 54 | 192 | 0.0 | 7.8 | 0.00 | 0.00 | 0.00 | 70 | 1011.5 |
| 20260505011526 | 55 | 263 | 1.7 | 7.8 | 0.00 | 0.00 | 0.00 | 70 | 1011.4 |
| 20260505011008 | 55 | 160 | 0.0 | 6.1 | 0.00 | 0.00 | 0.00 | 69 | 1011.4 |
| 20260505010505 | 55 | 207 | 1.7 | 6.1 | 0.00 | 0.00 | 0.00 | 69 | 1011.3 |
| 20260505010016 | 55 | 214 | 1.7 | 7.0 | 0.00 | 0.00 | 0.00 | 68 | 1011.2 |
| 20260505005506 | 55 | 189 | 2.6 | 7.0 | 0.00 | 0.00 | 0.00 | 68 | 1011.1 |
| 20260505005008 | 55 | 201 | 3.5 | 7.0 | 0.00 | 0.00 | 0.00 | 68 | 1011.0 |
| 20260505004519 | 55 | 269 | 0.9 | 5.2 | 0.00 | 0.00 | 0.00 | 67 | 1010.9 |
| 20260505004003 | 55 | 140 | 0.9 | 5.2 | 0.00 | 0.00 | 0.00 | 66 | 1010.8 |
| 20260505003502 | 55 | 217 | 1.7 | 5.2 | 0.00 | 0.00 | 0.00 | 65 | 1010.8 |
| 20260505003004 | 56 | 137 | 0.0 | 4.3 | 0.00 | 0.00 | 0.00 | 65 | 1010.6 |
| 20260505002502 | 56 | 242 | 0.0 | 4.3 | 0.00 | 0.00 | 0.00 | 64 | 1010.4 |
| 20260505002002 | 56 | 140 | 0.9 | 4.3 | 0.00 | 0.00 | 0.00 | 63 | 1010.3 |
| 20260505001503 | 57 | 157 | 0.9 | 5.2 | 0.00 | 0.00 | 0.00 | 62 | 1010.3 |
| 20260505001002 | 57 | 94 | 0.0 | 5.2 | 0.00 | 0.00 | 0.00 | 61 | 1010.3 |
| 20260505000502 | 57 | 223 | 2.6 | 5.2 | 0.00 | 0.00 | 0.00 | 60 | 1010.3 |
| 20260505000004 | 58 | 180 | 1.7 | 6.1 | 0.00 | 0.00 | 0.00 | 58 | 1010.2 |
| 20260504235502 | 58 | 180 | 0.9 | 6.1 | 0.00 | 0.00 | 0.00 | 57 | 1010.2 |
| 20260504235001 | 58 | 269 | 0.0 | 2.6 | 0.00 | 0.00 | 0.00 | 56 | 1010.1 |
| 20260504234504 | 59 | 284 | 0.0 | 7.0 | 0.00 | 0.00 | 0.00 | 56 | 1010.1 |
| 20260504234001 | 59 | 342 | 0.9 | 7.0 | 0.00 | 0.00 | 0.00 | 55 | 1009.9 |
| 20260504233502 | 59 | 285 | 0.9 | 4.3 | 0.00 | 0.00 | 0.00 | 55 | 1009.8 |
| 20260504233004 | 60 | 40 | 0.9 | 4.3 | 0.00 | 0.00 | 0.00 | 54 | 1009.6 |
| 20260504232503 | 60 | 279 | 1.7 | 8.7 | 0.00 | 0.00 | 0.00 | 53 | 1009.6 |
| 20260504232002 | 60 | 228 | 3.5 | 9.6 | 0.00 | 0.00 | 0.00 | 53 | 1009.4 |
| 20260504231502 | 61 | 248 | 5.2 | 9.6 | 0.00 | 0.00 | 0.00 | 52 | 1009.4 |
| 20260504231002 | 61 | 229 | 3.5 | 8.7 | 0.00 | 0.00 | 0.00 | 51 | 1009.3 |
| 20260504230503 | 62 | 188 | 1.7 | 7.0 | 0.00 | 0.00 | 0.00 | 50 | 1009.2 |
| 20260504230006 | 62 | 304 | 2.6 | 7.0 | 0.00 | 0.00 | 0.00 | 50 | 1009.2 |
| 20260504225502 | 62 | 257 | 2.6 | 7.0 | 0.00 | 0.00 | 0.00 | 50 | 1009.2 |
| 20260504225002 | 62 | 263 | 2.6 | 12.2 | 0.00 | 0.00 | 0.00 | 48 | 1009.2 |
| 20260504224502 | 62 | 263 | 4.3 | 12.2 | 0.00 | 0.00 | 0.00 | 49 | 1009.1 |
| 20260504224002 | 63 | 250 | 4.3 | 11.3 | 0.00 | 0.00 | 0.00 | 48 | 1009.2 |
| 20260504223502 | 63 | 252 | 4.3 | 10.4 | 0.00 | 0.00 | 0.00 | 48 | 1009.1 |
| 20260504223004 | 63 | 247 | 3.5 | 11.3 | 0.00 | 0.00 | 0.00 | 48 | 1009.1 |
| 20260504222503 | 63 | 264 | 4.3 | 11.3 | 0.00 | 0.00 | 0.00 | 47 | 1009.1 |
| 20260504222004 | 63 | 184 | 2.6 | 11.3 | 0.00 | 0.00 | 0.00 | 48 | 1009.0 |
| 20260504221505 | 63 | 169 | 1.7 | 9.6 | 0.00 | 0.00 | 0.00 | 48 | 1009.0 |
| 20260504221003 | 63 | 135 | 5.2 | 10.4 | 0.00 | 0.00 | 0.00 | 47 | 1009.0 |
| 20260504220503 | 63 | 196 | 6.1 | 12.2 | 0.00 | 0.00 | 0.00 | 47 | 1009.0 |
| 20260504220003 | 64 | 290 | 7.0 | 12.2 | 0.00 | 0.00 | 0.00 | 45 | 1009.1 |
| 20260504215503 | 64 | 271 | 5.2 | 12.2 | 0.00 | 0.00 | 0.00 | 45 | 1009.0 |
| 20260504215004 | 65 | 220 | 7.0 | 13.9 | 0.00 | 0.00 | 0.00 | 44 | 1009.0 |
| 20260504214504 | 65 | 245 | 6.1 | 13.9 | 0.00 | 0.00 | 0.00 | 44 | 1009.0 |
| 20260504214002 | 66 | 258 | 6.1 | 11.3 | 0.00 | 0.00 | 0.00 | 44 | 1009.1 |
| 20260504213503 | 65 | 284 | 2.6 | 11.3 | 0.00 | 0.00 | 0.00 | 45 | 1008.9 |
| 20260504213013 | 66 | 254 | 4.3 | 11.3 | 0.00 | 0.00 | 0.00 | 43 | 1009.0 |
| 20260504212503 | 66 | 63 | 2.6 | 13.9 | 0.00 | 0.00 | 0.00 | 43 | 1008.9 |
| 20260504212004 | 66 | 232 | 4.3 | 13.9 | 0.00 | 0.00 | 0.00 | 43 | 1009.0 |
| 20260504211511 | 66 | 231 | 7.0 | 13.9 | 0.00 | 0.00 | 0.00 | 43 | 1009.0 |
| 20260504211002 | 66 | 261 | 6.1 | 13.0 | 0.00 | 0.00 | 0.00 | 42 | 1009.0 |
| 20260504210503 | 67 | 297 | 4.3 | 11.3 | 0.00 | 0.00 | 0.00 | 42 | 1008.9 |
| 20260504210006 | 67 | 249 | 4.3 | 13.9 | 0.00 | 0.00 | 0.00 | 42 | 1008.9 |
| 20260504205503 | 67 | 269 | 4.3 | 13.9 | 0.00 | 0.00 | 0.00 | 41 | 1008.9 |
| 20260504205003 | 67 | 269 | 3.5 | 10.4 | 0.00 | 0.00 | 0.00 | 42 | 1008.9 |
| 20260504204504 | 67 | 261 | 4.3 | 8.7 | 0.00 | 0.00 | 0.00 | 42 | 1008.9 |
| 20260504204003 | 67 | 267 | 4.3 | 11.3 | 0.00 | 0.00 | 0.00 | 42 | 1008.9 |
| 20260504203506 | 67 | 234 | 4.3 | 11.3 | 0.00 | 0.00 | 0.00 | 44 | 1009.0 |
| 20260504203007 | 67 | 264 | 5.2 | 10.4 | 0.00 | 0.00 | 0.00 | 41 | 1008.9 |
| 20260504202504 | 67 | 265 | 3.5 | 13.9 | 0.00 | 0.00 | 0.00 | 42 | 1009.0 |
| 20260504202003 | 67 | 197 | 6.1 | 12.2 | 0.00 | 0.00 | 0.00 | 41 | 1008.9 |
| 20260504201505 | 67 | 182 | 3.5 | 12.2 | 0.00 | 0.00 | 0.00 | 44 | 1008.9 |
| 20260504201002 | 66 | 319 | 6.1 | 12.2 | 0.00 | 0.00 | 0.00 | 42 | 1008.8 |
| 20260504200504 | 66 | 254 | 7.8 | 12.2 | 0.00 | 0.00 | 0.00 | 40 | 1008.9 |
| 20260504200004 | 67 | 309 | 2.6 | 9.6 | 0.00 | 0.00 | 0.00 | 40 | 1008.9 |
| 20260504195502 | 67 | 246 | 3.5 | 10.4 | 0.00 | 0.00 | 0.00 | 39 | 1008.9 |
| 20260504195002 | 67 | 246 | 6.1 | 13.9 | 0.00 | 0.00 | 0.00 | 39 | 1008.9 |
| 20260504194504 | 67 | 244 | 7.0 | 13.9 | 0.00 | 0.00 | 0.00 | 40 | 1008.9 |
| 20260504194002 | 67 | 273 | 7.0 | 12.2 | 0.00 | 0.00 | 0.00 | 37 | 1008.9 |
| 20260504193501 | 67 | 273 | 6.1 | 12.2 | 0.00 | 0.00 | 0.00 | 37 | 1008.8 |
| 20260504193004 | 67 | 252 | 4.3 | 12.2 | 0.00 | 0.00 | 0.00 | 37 | 1008.8 |
| 20260504192502 | 67 | 268 | 6.1 | 15.6 | 0.00 | 0.00 | 0.00 | 36 | 1008.8 |
| 20260504192003 | 67 | 315 | 6.1 | 15.6 | 0.00 | 0.00 | 0.00 | 36 | 1008.9 |
| 20260504191504 | 67 | 261 | 5.2 | 12.2 | 0.00 | 0.00 | 0.00 | 36 | 1008.8 |
| 20260504191003 | 67 | 276 | 7.0 | 13.0 | 0.00 | 0.00 | 0.00 | 35 | 1008.9 |
| 20260504190503 | 68 | 240 | 4.3 | 13.0 | 0.00 | 0.00 | 0.00 | 38 | 1009.0 |
| 20260504190003 | 68 | 244 | 3.5 | 11.3 | 0.00 | 0.00 | 0.00 | 35 | 1009.0 |
| 20260504185506 | 67 | 232 | 3.5 | 12.2 | 0.00 | 0.00 | 0.00 | 34 | 1009.0 |
| 20260504185002 | 67 | 232 | 3.5 | 12.2 | 0.00 | 0.00 | 0.00 | 37 | 1009.0 |
| 20260504184511 | 67 | 212 | 4.3 | 9.6 | 0.00 | 0.00 | 0.00 | 37 | 1009.0 |
| 20260504184003 | 67 | 215 | 6.1 | 13.0 | 0.00 | 0.00 | 0.00 | 34 | 1009.1 |
| 20260504183503 | 67 | 279 | 6.1 | 13.0 | 0.00 | 0.00 | 0.00 | 35 | 1009.1 |
| 20260504183005 | 67 | 204 | 4.3 | 11.3 | 0.00 | 0.00 | 0.00 | 35 | 1009.2 |
| 20260504182506 | 67 | 305 | 6.1 | 13.0 | 0.00 | 0.00 | 0.00 | 36 | 1009.3 |
| 20260504182002 | 67 | 317 | 7.8 | 13.0 | 0.00 | 0.00 | 0.00 | 35 | 1009.3 |
| 20260504181504 | 67 | 270 | 7.8 | 13.0 | 0.00 | 0.00 | 0.00 | 35 | 1009.3 |
| 20260504181003 | 67 | 312 | 7.8 | 13.0 | 0.00 | 0.00 | 0.00 | 34 | 1009.5 |
| 20260504180503 | 67 | 159 | 3.5 | 12.2 | 0.00 | 0.00 | 0.00 | 34 | 1009.5 |
| 20260504180006 | 67 | 269 | 3.5 | 13.9 | 0.00 | 0.00 | 0.00 | 37 | 1009.6 |
| 20260504175505 | 67 | 276 | 6.1 | 13.9 | 0.00 | 0.00 | 0.00 | 34 | 1009.5 |
| 20260504175004 | 66 | 287 | 8.7 | 13.9 | 0.00 | 0.00 | 0.00 | 35 | 1009.6 |
| 20260504174502 | 66 | 281 | 7.0 | 11.3 | 0.00 | 0.00 | 0.00 | 35 | 1009.7 |
| 20260504174002 | 66 | 279 | 5.2 | 11.3 | 0.00 | 0.00 | 0.00 | 36 | 1009.7 |
| 20260504173506 | 66 | 205 | 4.3 | 10.4 | 0.00 | 0.00 | 0.00 | 35 | 1009.8 |
| 20260504173008 | 66 | 283 | 3.5 | 12.2 | 0.00 | 0.00 | 0.00 | 37 | 1009.8 |
| 20260504172503 | 66 | 280 | 5.2 | 12.2 | 0.00 | 0.00 | 0.00 | 35 | 1009.9 |
| 20260504172003 | 66 | 309 | 6.1 | 12.2 | 0.00 | 0.00 | 0.00 | 37 | 1009.8 |
| 20260504171504 | 66 | 257 | 5.2 | 12.2 | 0.00 | 0.00 | 0.00 | 34 | 1009.7 |
| 20260504171002 | 65 | 139 | 5.2 | 12.2 | 0.00 | 0.00 | 0.00 | 34 | 1009.8 |
| 20260504170503 | 65 | 241 | 6.1 | 12.2 | 0.00 | 0.00 | 0.00 | 34 | 1010.0 |
| 20260504151008 | 64 | 293 | 4.3 | 14.8 | 0.00 | 0.00 | 0.00 | 37 | 1010.9 |
| 20260504150504 | 63 | 297 | 7.0 | 18.2 | 0.00 | 0.00 | 0.00 | 36 | 1011.1 |